| time (UTC) | temp C | wind direction | speed KPH | gust KPH | rain 1hr cm | rain 24hr cm | rain mn cm | humidity % | barometer mb |
| 20260506113047 | 10 | 148 | 1.6 | 4.8 | 0.00 | 0.03 | 0.00 | 69 | 1016.4 |
| 20260506111542 | 10 | 134 | 1.6 | 3.2 | 0.00 | 0.03 | 0.00 | 68 | 1016.4 |
| 20260506110041 | 10 | 133 | 1.6 | 4.8 | 0.00 | 0.03 | 0.00 | 67 | 1016.5 |
| 20260506104545 | 10 | 141 | 1.6 | 4.8 | 0.00 | 0.03 | 0.00 | 69 | 1016.5 |
| 20260506103041 | 10 | 122 | 0.0 | 1.6 | 0.00 | 0.03 | 0.00 | 70 | 1016.4 |
| 20260506101545 | 10 | 126 | 1.6 | 3.2 | 0.00 | 0.03 | 0.00 | 68 | 1016.1 |
| 20260506100042 | 11 | 135 | 0.0 | 4.8 | 0.00 | 0.03 | 0.00 | 62 | 1016.0 |
| 20260506094543 | 11 | 141 | 0.0 | 4.8 | 0.00 | 0.10 | 0.00 | 62 | 1016.0 |
| 20260506093041 | 11 | 138 | 1.6 | 6.4 | 0.00 | 0.10 | 0.00 | 62 | 1016.2 |
| 20260506091538 | 11 | 179 | 1.6 | 6.4 | 0.00 | 0.10 | 0.00 | 61 | 1015.9 |
| 20260506090037 | 12 | 215 | 3.2 | 4.8 | 0.00 | 0.10 | 0.00 | 61 | 1016.1 |
| 20260506084543 | 12 | 221 | 1.6 | 4.8 | 0.00 | 0.25 | 0.00 | 60 | 1016.1 |
| 20260506083047 | 12 | 224 | 3.2 | 4.8 | 0.00 | 0.25 | 0.00 | 60 | 1016.1 |
| 20260506081541 | 12 | 252 | 3.2 | 4.8 | 0.00 | 0.25 | 0.00 | 61 | 1016.2 |
| 20260506073039 | 13 | 221 | 4.8 | 9.7 | 0.00 | 0.41 | 0.00 | 59 | 1016.4 |
| 20260506071545 | 13 | 221 | 4.8 | 9.7 | 0.00 | 0.41 | 0.00 | 59 | 1016.2 |
| 20260506061542 | 14 | 241 | 3.2 | 6.4 | 0.00 | 0.48 | 0.41 | 60 | 1016.1 |
| 20260506044542 | 15 | 276 | 0.0 | 3.2 | 0.00 | 0.51 | 0.41 | 51 | 1015.4 |
| 20260506043037 | 16 | 257 | 1.6 | 8.0 | 0.00 | 0.51 | 0.41 | 49 | 1015.1 |
| 20260506041542 | 16 | 290 | 4.8 | 8.0 | 0.00 | 0.51 | 0.41 | 46 | 1014.9 |
| 20260506040046 | 16 | 281 | 1.6 | 8.0 | 0.00 | 0.51 | 0.41 | 42 | 1014.7 |
| 20260506034543 | 17 | 239 | 6.4 | 11.3 | 0.00 | 0.51 | 0.41 | 41 | 1014.6 |
| 20260506033043 | 17 | 282 | 6.4 | 9.7 | 0.00 | 0.51 | 0.41 | 40 | 1014.3 |
| 20260506031538 | 17 | 296 | 3.2 | 8.0 | 0.00 | 0.51 | 0.41 | 40 | 1014.1 |
| 20260506030037 | 17 | 278 | 6.4 | 12.9 | 0.00 | 0.51 | 0.41 | 38 | 1013.8 |
| 20260506024545 | 18 | 288 | 6.4 | 16.1 | 0.00 | 0.51 | 0.41 | 37 | 1013.7 |
| 20260506023055 | 18 | 301 | 8.0 | 14.5 | 0.00 | 0.51 | 0.41 | 37 | 1013.4 |
| 20260506021543 | 18 | 288 | 11.3 | 17.7 | 0.00 | 0.51 | 0.41 | 35 | 1012.9 |
| 20260506020039 | 19 | 271 | 8.0 | 20.9 | 0.00 | 0.51 | 0.41 | 32 | 1012.6 |
| 20260506014540 | 20 | 287 | 12.9 | 22.5 | 0.00 | 0.51 | 0.41 | 30 | 1012.5 |
| 20260506013037 | 20 | 282 | 14.5 | 24.1 | 0.00 | 0.51 | 0.41 | 30 | 1012.4 |
| 20260506011540 | 21 | 235 | 12.9 | 24.1 | 0.00 | 0.51 | 0.41 | 32 | 1012.3 |
| 20260506010054 | 20 | 270 | 14.5 | 27.4 | 0.00 | 0.51 | 0.41 | 31 | 1012.2 |
| 20260506004543 | 21 | 320 | 16.1 | 27.4 | 0.00 | 0.51 | 0.41 | 29 | 1011.9 |
| 20260506003041 | 21 | 267 | 19.3 | 27.4 | 0.00 | 0.51 | 0.41 | 28 | 1012.1 |
| 20260506001544 | 21 | 266 | 17.7 | 29.0 | 0.00 | 0.51 | 0.41 | 26 | 1011.9 |
| 20260506000037 | 21 | 313 | 17.7 | 27.4 | 0.00 | 0.51 | 0.41 | 27 | 1011.7 |
| 20260505234601 | 21 | 206 | 20.9 | 33.8 | 0.00 | 0.51 | 0.41 | 25 | 1011.6 |
| 20260505233042 | 22 | 280 | 12.9 | 33.8 | 0.00 | 0.51 | 0.41 | 22 | 1011.6 |
| 20260505231542 | 22 | 247 | 19.3 | 30.6 | 0.00 | 0.51 | 0.41 | 23 | 1011.5 |
| 20260505230041 | 22 | 270 | 17.7 | 32.2 | 0.00 | 0.51 | 0.41 | 28 | 1011.6 |
| 20260505224542 | 22 | 278 | 16.1 | 32.2 | 0.00 | 0.51 | 0.41 | 31 | 1011.7 |
| 20260505223040 | 22 | 286 | 17.7 | 32.2 | 0.00 | 0.51 | 0.41 | 32 | 1011.9 |
| 20260505221542 | 22 | 243 | 16.1 | 40.2 | 0.00 | 0.51 | 0.41 | 32 | 1011.8 |
| 20260505220045 | 22 | 266 | 14.5 | 33.8 | 0.00 | 0.51 | 0.41 | 33 | 1012.1 |
| 20260505214559 | 22 | 274 | 16.1 | 35.4 | 0.00 | 0.51 | 0.41 | 34 | 1012.1 |
| 20260505213042 | 22 | 245 | 20.9 | 32.2 | 0.00 | 0.51 | 0.41 | 34 | 1012.2 |
| 20260505211539 | 22 | 198 | 19.3 | 32.2 | 0.00 | 0.51 | 0.41 | 34 | 1012.3 |
| 20260505210042 | 22 | 168 | 20.9 | 33.8 | 0.00 | 0.51 | 0.41 | 34 | 1012.5 |
| 20260505204553 | 22 | 251 | 17.7 | 40.2 | 0.00 | 0.51 | 0.41 | 35 | 1012.8 |
| 20260505203047 | 21 | 207 | 19.3 | 40.2 | 0.00 | 0.51 | 0.41 | 37 | 1012.7 |
| 20260505201539 | 22 | 265 | 20.9 | 33.8 | 0.00 | 0.51 | 0.41 | 37 | 1012.9 |
| 20260505200058 | 22 | 226 | 19.3 | 35.4 | 0.00 | 0.51 | 0.41 | 39 | 1013.1 |
| 20260505194545 | 21 | 227 | 19.3 | 30.6 | 0.00 | 0.51 | 0.41 | 39 | 1013.0 |
| 20260505193042 | 21 | 278 | 14.5 | 35.4 | 0.00 | 0.51 | 0.41 | 38 | 1013.1 |
| 20260505191542 | 21 | 311 | 12.9 | 27.4 | 0.00 | 0.51 | 0.41 | 48 | 1013.4 |
| 20260505190042 | 20 | 275 | 14.5 | 24.1 | 0.00 | 0.51 | 0.41 | 51 | 1013.4 |
| 20260505184538 | 19 | 294 | 3.2 | 12.9 | 0.00 | 0.51 | 0.41 | 56 | 1013.6 |
| 20260505183038 | 19 | 302 | 8.0 | 17.7 | 0.00 | 0.51 | 0.41 | 57 | 1013.8 |
| 20260505181543 | 18 | 300 | 4.8 | 12.9 | 0.00 | 0.51 | 0.41 | 59 | 1014.1 |
| 20260505180103 | 18 | 226 | 4.8 | 12.9 | 0.00 | 0.51 | 0.41 | 60 | 1014.1 |
| 20260505174558 | 18 | 311 | 4.8 | 11.3 | 0.00 | 0.51 | 0.41 | 62 | 1014.2 |
| 20260505173045 | 17 | 356 | 6.4 | 11.3 | 0.00 | 0.51 | 0.41 | 62 | 1014.3 |
| 20260505171537 | 17 | 158 | 1.6 | 9.7 | 0.00 | 0.51 | 0.41 | 64 | 1014.3 |
| 20260505170048 | 17 | 160 | 3.2 | 6.4 | 0.00 | 0.51 | 0.41 | 65 | 1014.3 |
| 20260505164539 | 17 | 271 | 4.8 | 8.0 | 0.00 | 0.51 | 0.41 | 66 | 1014.5 |
| 20260505163042 | 16 | 317 | 4.8 | 9.7 | 0.00 | 0.51 | 0.41 | 68 | 1014.5 |
| 20260505161541 | 16 | 339 | 4.8 | 9.7 | 0.00 | 0.51 | 0.41 | 70 | 1014.5 |
| 20260505153045 | 16 | 276 | 3.2 | 6.4 | 0.00 | 0.51 | 0.41 | 73 | 1014.3 |
| 20260505151543 | 15 | 212 | 3.2 | 6.4 | 0.00 | 0.51 | 0.41 | 74 | 1014.3 |
| 20260505124538 | 13 | 126 | 0.0 | 3.2 | 0.00 | 0.51 | 0.41 | 87 | 1013.1 |
| 20260505123047 | 13 | 119 | 1.6 | 3.2 | 0.00 | 0.51 | 0.41 | 86 | 1012.8 |
| 20260505121540 | 13 | 127 | 3.2 | 6.4 | 0.03 | 0.51 | 0.41 | 86 | 1013.2 |
| 20260505120043 | 13 | 124 | 0.0 | 4.8 | 0.03 | 0.51 | 0.41 | 87 | 1012.8 |
| 20260505114538 | 13 | 155 | 1.6 | 6.4 | 0.03 | 0.51 | 0.41 | 87 | 1012.6 |